Temp
25 26 30 33 32 31 30 35 37 35 35 37 36 35 34 33 32 30 30 28 28 27 24 23 22 23 23 23 23 22 22 21 21 21 21 21 21 21 21 21 21 22 21 21 21 21 21 21 21
32 31 32 35 26 32 31 36 35 35 36 36 35 35 32 31 32 32 29 29 29 27 26 24 22 23 22 23 23 22 21 21 21 21 21 21 21 21 21 21 21 21 21 22 21 21 21 21 21
30 32 35 35 31 30 33 34 36 36 36 35 34 34 33 31 33 32 29 30 29 28 27 23 22 22 21 22 21 21 21 21 21 22 21 21 21 21 21 21 21 22 21 21 21 21 21 21 21
34 36 36 29 33 35 35 34 36 35 36 36 35 31 31 32 32 32 30 29 30 29 28 22 22 22 21 21 21 21 21 21 22 21 22 21 21 21 22 21 21 21 21 21 21 21 21 21 21
35 37 34 32 34 35 36 34 35 33 34 35 35 32 30 31 31 30 30 28 30 30 26 23 22 21 21 21 21 21 21 21 21 21 21 21 21 21 22 22 21 22 22 21 21 21 21 21 21
36 36 33 35 35 36 35 36 35 35 35 34 34 31 28 29 30 30 30 29 31 30 27 24 22 21 21 21 21 21 21 21 21 21 21 21 21 21 21 21 21 21 21 21 21 21 21 21 21
37 38 37 36 35 35 34 36 34 35 35 34 35 32 28 29 30 30 31 31 31 30 28 25 24 22 21 21 21 21 21 21 21 21 21 21 21 21 22 21 21 21 21 21 21 21 21 21 21
39 39 37 37 36 34 36 35 35 34 34 35 35 31 30 31 30 30 31 31 31 30 29 27 26 24 24 23 21 21 21 21 21 21 21 21 22 22 23 23 22 22 21 21 21 21 21 21 21
40 35 36 36 36 35 36 35 35 36 34 34 34 33 32 30 30 31 31 31 31 30 29 28 27 26 25 25 23 21 21 21 21 21 21 22 23 21 21 23 23 22 21 21 21 21 21 21 21
40 36 37 39 38 36 36 36 35 34 34 33 33 33 31 31 31 31 31 31 30 30 30 29 28 28 27 26 24 23 22 22 21 21 22 22 22 22 23 24 23 23 23 22 21 21 21 21 24
39 38 38 38 38 38 36 36 37 35 31 35 32 32 32 31 31 32 31 31 30 30 30 29 28 28 27 27 24 24 21 21 22 22 22 22 22 23 23 25 24 24 23 24 23 22 22 24 25
38 39 39 38 38 37 36 36 36 34 35 36 34 33 33 32 33 32 32 31 31 30 30 29 28 27 27 26 25 23 21 21 22 23 22 22 22 23 23 24 23 23 24 25 25 24 23 24 23
39 39 39 38 38 37 36 35 35 34 34 35 34 33 33 33 32 32 32 32 31 30 30 29 29 27 27 25 25 22 21 21 22 22 22 21 22 21 21 23 24 24 24 25 24 24 23 22 24
40 39 39 39 38 37 36 35 36 35 35 35 34 34 33 33 33 33 32 32 32 31 30 29 28 27 25 25 24 22 21 22 23 22 22 21 22 21 21 24 24 24 25 25 23 23 24 23 25
40 38 38 38 38 36 28 35 35 35 35 34 34 34 34 34 33 33 32 32 31 31 30 29 28 27 24 24 23 22 22 23 24 24 23 23 23 22 22 23 23 23 25 24 23 23 23 22 22
39 40 26 38 38 32 23 33 35 35 35 35 35 35 34 34 34 33 32 32 31 31 30 29 29 28 26 25 24 24 24 24 23 22 23 23 22 22 22 22 23 24 25 24 22 23 22 22 21
39 24 30 38 38 38 33 36 35 36 35 35 35 35 35 34 34 33 33 32 32 31 29 29 28 28 27 26 24 23 25 23 24 22 23 24 22 23 22 23 24 24 25 23 22 22 22 22 22
36 29 37 38 38 38 38 38 36 36 36 36 35 35 35 35 35 34 33 33 32 31 30 29 28 27 27 27 25 23 23 24 23 22 22 23 23 23 22 24 24 24 23 22 22 22 22 22 23
35 36 39 40 40 39 38 38 38 37 37 36 36 36 35 36 36 35 34 33 33 32 30 29 28 27 26 26 26 23 23 23 23 23 24 25 24 24 22 22 23 22 22 22 22 22 22 23 24
40 39 38 38 40 39 39 39 40 38 37 37 37 36 36 36 36 36 34 34 33 32 31 29 28 27 26 26 27 26 24 23 24 25 25 25 24 24 23 22 22 22 22 23 22 22 22 22 22
40 38 33 35 39 40 39 37 36 39 38 38 38 38 38 37 37 36 36 35 34 33 31 30 28 27 26 26 27 26 25 24 24 24 24 24 25 24 23 23 22 22 22 22 22 21 21 21 21
37 38 39 39 38 31 32 27 30 39 38 38 38 38 38 38 37 37 36 35 35 33 32 30 29 27 26 26 27 27 25 24 24 24 26 26 25 24 23 23 23 22 22 22 22 22 22 21 21
36 38 39 39 39 35 35 36 37 40 38 38 38 39 38 38 38 38 37 36 35 34 33 31 29 27 27 26 26 27 25 27 25 26 25 24 24 24 24 24 23 23 23 22 21 22 21 22 21
40 39 39 40 39 37 37 37 37 33 39 39 39 40 39 39 39 38 37 36 36 35 34 32 29 27 26 26 25 25 27 26 26 25 25 25 25 25 24 24 24 24 24 24 23 22 22 22 22
39 39 37 35 37 35 39 39 36 38 39 39 38 39 40 39 38 39 38 37 36 35 34 32 29 27 26 26 26 25 25 25 26 25 26 26 25 26 25 23 24 24 23 24 24 24 23 22 22
39 39 37 33 34 28 36 38 38 40 39 38 38 38 38 40 39 39 38 37 36 35 33 31 29 28 27 27 26 26 26 26 25 25 25 25 24 25 26 24 24 24 24 24 24 24 24 24 23
37 37 40 32 30 34 36 37 40 39 38 38 37 37 37 38 38 37 37 36 34 33 31 30 29 28 28 28 27 26 26 25 26 26 25 25 25 25 25 24 23 24 23 24 24 25 25 24 24
39 39 37 39 35 34 36 34 36 38 37 37 37 36 35 34 34 33 34 33 32 32 31 29 28 27 28 27 27 25 24 23 23 24 23 24 24 24 24 23 24 24 23 23 24 26 25 25 25
38 38 39 38 37 34 35 35 34 37 37 37 36 36 34 34 33 33 33 32 31 31 30 30 28 24 23 21 22 21 21 21 21 21 21 22 22 22 22 21 21 22 23 23 23 24 24 25 25
40 39 40 38 37 39 39 36 39 38 37 36 35 35 34 33 33 33 32 31 30 29 27 25 24 23 22 21 21 22 21 21 21 20 21 21 21 21 20 20 20 22 23 22 23 23 24 24 24
Height
744 744 739 732 752 746 769 747 729 744 743 732 735 741 752 755 763 786 776 786 791 799 804 809 810 812 815 817 820 821 822 823 824 826 827 828 829 830 831 831 832 833 834 836 837 837 838 840 841
742 742 737 727 776 768 769 738 746 741 736 736 740 744 754 770 760 765 780 786 792 798 805 810 812 814 816 818 821 823 825 826 826 828 829 830 831 832 833 833 834 836 837 838 839 840 841 842 843
744 743 734 734 757 780 769 747 741 739 737 739 749 747 754 772 765 768 781 786 790 799 804 810 813 815 818 820 823 825 827 829 829 830 831 832 833 834 835 835 836 838 840 841 842 843 845 845 845
739 732 727 769 765 747 749 750 738 744 740 738 745 768 769 767 769 773 783 789 792 796 803 812 814 817 820 822 825 827 829 830 831 832 833 835 836 837 837 838 839 840 842 844 844 846 845 846 847
731 722 749 763 758 747 740 743 745 753 749 747 745 766 775 772 773 779 785 794 792 795 806 814 816 819 821 824 827 829 830 831 833 834 836 837 838 838 838 839 841 842 843 844 846 846 846 847 848
734 728 762 761 759 746 743 737 742 745 747 751 756 771 784 780 778 781 785 793 791 795 808 815 818 821 823 826 829 831 832 833 835 836 837 838 838 838 839 840 841 842 844 845 846 846 847 848 848
729 732 751 752 757 754 751 738 747 745 746 753 748 768 781 780 781 784 785 789 791 797 807 816 820 823 825 828 831 833 834 835 836 837 837 837 837 838 838 840 841 843 844 845 846 846 847 847 848
721 724 748 747 756 764 745 743 742 749 757 748 748 769 779 774 782 786 788 790 792 798 806 815 819 824 827 829 832 834 835 836 837 837 837 836 837 842 838 837 840 842 844 845 845 845 846 847 848
718 750 756 751 751 754 740 748 743 742 752 753 754 757 766 777 782 786 790 792 795 800 804 811 816 822 826 829 832 835 836 837 838 837 836 835 844 829 843 836 838 841 842 843 843 843 844 845 846
722 750 747 730 730 745 741 742 746 755 756 760 760 760 770 777 781 784 790 793 797 800 803 809 813 818 822 826 829 834 835 837 837 836 835 836 840 844 837 836 838 840 841 841 841 841 842 843 842
723 743 729 732 732 733 744 746 737 749 770 751 766 767 771 777 781 783 788 792 797 801 803 808 812 816 820 824 827 830 833 833 835 837 838 838 836 836 836 836 837 839 838 839 838 839 840 839 837
736 729 726 732 733 738 745 744 745 751 752 744 758 765 771 776 779 782 785 789 793 799 802 806 810 815 818 821 825 829 830 833 834 835 837 838 838 837 837 836 838 839 838 836 836 836 837 836 836
728 731 728 729 731 735 740 749 749 754 752 748 758 765 770 774 778 780 784 787 790 797 801 805 809 815 818 822 824 827 830 832 834 835 837 836 837 837 837 836 836 836 836 834 834 834 836 837 835
718 723 728 726 733 736 746 752 742 751 746 753 759 763 768 771 775 778 781 785 789 794 799 804 809 813 818 821 824 826 829 831 832 833 835 834 836 835 836 834 834 835 833 832 833 835 834 834 833
718 735 732 732 730 742 759 757 757 748 747 754 757 760 763 768 773 777 781 785 789 792 797 801 806 810 816 820 823 825 827 828 829 830 831 832 832 832 833 833 832 831 830 831 832 833 833 831 830
731 725 804 739 734 756 791 773 754 747 750 755 754 758 763 766 770 776 780 783 787 791 796 801 803 806 810 815 819 822 823 824 825 826 827 827 828 828 829 830 828 828 828 828 829 830 831 830 830
731 824 785 745 728 732 751 747 747 743 747 752 753 756 761 763 767 772 777 781 783 789 794 799 801 803 806 811 814 817 819 821 822 822 823 823 823 824 825 825 824 825 824 825 826 827 826 827 826
764 795 749 743 738 733 735 738 741 742 742 747 750 752 758 759 761 766 772 776 780 785 791 796 799 802 805 807 810 814 817 817 818 818 818 820 819 821 822 822 821 822 822 823 823 823 823 823 822
753 751 738 727 719 734 735 733 731 737 739 743 746 748 752 752 754 759 766 770 775 781 787 793 797 800 803 806 806 810 812 813 814 814 814 814 817 818 819 820 820 820 819 819 820 821 820 820 819
727 733 744 734 722 731 730 731 721 728 735 735 742 745 744 746 747 753 760 765 769 777 784 789 793 797 800 802 804 804 807 809 811 811 811 813 814 815 816 816 816 817 816 816 817 818 818 818 817
728 740 772 770 729 723 734 749 743 721 725 729 733 734 735 740 743 748 754 759 764 769 778 784 789 794 797 800 801 803 805 807 808 808 809 810 811 811 812 812 811 812 812 813 814 814 815 816 815
752 733 733 738 744 797 767 829 779 725 729 728 728 730 731 733 738 742 749 754 758 765 772 779 784 789 793 796 797 799 802 804 805 806 804 807 808 809 809 809 808 807 808 809 810 810 813 813 814
759 732 733 729 737 755 760 770 744 719 727 725 723 721 723 725 730 735 742 748 753 759 765 773 780 785 787 791 793 795 798 798 800 802 802 805 805 805 805 805 805 806 805 805 806 807 808 809 811
717 730 728 726 731 759 750 751 748 772 724 721 713 712 714 720 724 732 738 744 750 755 761 768 776 781 785 788 790 792 793 796 797 799 801 802 801 801 802 802 803 804 805 803 803 803 805 806 807
727 737 760 777 760 779 731 739 751 723 716 715 719 712 709 712 722 726 734 739 746 751 758 765 773 780 781 785 787 789 792 794 795 797 797 796 799 797 798 799 800 800 801 802 802 802 803 803 805
728 730 755 799 787 818 747 749 733 709 709 711 713 713 715 711 716 724 728 736 742 750 756 765 771 776 779 780 783 786 788 788 791 793 792 793 794 794 795 796 798 798 798 799 799 800 801 801 802
738 745 713 776 791 773 755 739 712 710 715 716 720 722 723 718 718 727 731 738 746 754 760 765 770 774 775 777 781 784 785 787 786 787 789 789 789 792 792 795 796 797 797 797 797 797 799 800 801
719 723 749 729 777 784 754 764 752 728 727 724 726 728 730 732 737 741 743 750 755 757 762 766 770 773 774 776 777 781 782 784 785 786 787 786 788 790 791 792 792 794 796 797 797 795 796 799 799
729 735 726 736 747 781 778 760 741 720 721 725 725 728 734 737 741 745 749 754 757 759 763 765 770 775 777 776 778 782 785 785 786 787 789 787 783 793 795 793 792 793 793 794 795 796 795 796 798
705 719 716 735 746 729 731 751 703 709 716 722 727 730 735 740 744 747 752 756 760 765 770 773 777 780 780 781 782 784 784 786 787 786 787 788 786 788 783 789 794 793 790 791 790 796 793 793 797
Wind_Speed
5 6 10 10 5 4 5 13 15 13 10 13 7 11 14 17 12 10 32 28 29 26 22 19 21 21 19 18 18 17 13 12 13 12 12 10 10 10 11 11 11 11 11 12 12 13 13 13 12
6 4 9 6 4 9 4 10 12 11 12 12 10 5 16 16 11 25 26 28 28 26 23 20 19 18 17 17 16 16 13 11 11 11 9 8 9 9 10 11 11 11 11 11 11 13 13 13 12
5 5 9 4 5 7 6 8 11 10 14 10 6 8 10 9 19 21 31 29 28 25 23 21 20 18 16 16 15 15 13 11 10 9 10 10 10 9 8 9 9 10 10 9 10 10 11 10 9
6 5 5 5 11 9 13 6 12 10 8 7 10 12 8 8 21 24 29 25 27 25 24 20 18 17 15 15 14 13 13 11 10 10 9 9 8 7 7 7 8 8 8 9 8 7 9 8 8
13 5 3 6 11 8 10 5 13 5 3 5 2 15 12 14 13 27 29 25 23 26 22 19 18 17 16 15 14 13 12 11 10 9 8 7 6 5 6 6 6 5 5 7 6 5 7 7 7
7 2 3 8 9 6 7 5 8 9 7 8 13 14 7 10 21 26 28 25 23 25 20 19 18 17 16 14 12 11 10 9 8 7 6 5 4 3 4 3 2 2 3 3 4 4 5 5 6
9 5 10 11 7 6 8 4 3 6 8 9 2 11 10 16 26 24 23 24 21 22 22 19 17 16 15 13 11 10 9 8 7 6 4 2 3 4 4 3 1 1 1 2 3 4 4 5 6
5 2 12 7 11 6 6 6 4 8 12 6 7 8 16 21 27 24 20 21 21 21 22 19 19 16 14 11 10 8 7 6 5 4 2 3 5 4 4 3 3 2 3 4 5 5 6 6 6
4 3 8 12 11 8 7 9 8 7 9 10 2 15 22 28 26 24 21 19 18 18 22 21 20 17 14 12 10 7 6 6 5 6 5 3 6 13 9 7 5 6 5 5 6 7 8 8 10
7 2 12 12 15 10 4 9 8 7 8 10 8 22 27 27 25 23 21 20 20 19 19 19 19 18 16 14 14 10 9 8 11 8 9 16 12 10 11 3 7 7 5 7 9 9 9 9 12
2 8 8 14 10 8 7 8 5 11 6 13 14 20 21 23 22 21 21 21 21 20 19 19 17 16 17 13 15 12 12 14 10 10 12 14 17 13 11 11 3 6 7 7 10 9 10 13 13
6 7 8 7 7 8 8 6 4 10 2 15 15 19 20 20 18 19 19 20 22 21 19 19 19 17 17 17 14 13 15 16 14 11 14 16 17 15 14 11 10 9 9 10 9 11 12 11 11
1 10 5 7 6 10 8 6 5 12 6 15 16 17 18 18 18 19 19 17 20 20 19 18 17 18 15 10 11 12 14 15 12 16 12 17 13 10 10 13 10 11 12 13 10 8 9 9 10
3 7 8 9 9 6 9 5 8 10 12 15 15 16 16 17 19 17 18 17 16 17 19 17 18 17 17 18 15 16 15 13 13 14 13 13 13 14 14 14 14 14 14 12 6 7 8 8 12
9 11 8 8 8 14 23 5 9 11 13 15 16 14 16 17 19 17 16 14 15 14 15 16 17 19 18 17 16 16 16 15 15 15 13 15 14 16 15 15 16 17 15 7 5 8 9 9 12
10 10 14 3 5 22 20 12 11 13 13 14 15 14 14 15 17 17 16 16 17 14 13 14 16 17 19 18 17 17 15 18 18 15 15 15 15 15 14 16 17 15 12 9 10 9 7 6 12
5 6 19 12 7 2 13 18 13 13 13 13 13 14 14 13 16 18 19 16 17 16 17 14 14 13 17 17 18 16 14 16 17 17 16 16 17 15 14 14 15 12 13 12 10 10 9 10 10
11 19 4 3 6 3 5 8 14 12 13 13 13 15 15 15 15 19 18 19 16 17 14 15 15 14 14 15 17 15 15 16 17 17 17 16 16 14 13 12 10 11 12 11 10 9 8 10 12
15 25 15 7 11 3 7 4 17 15 13 14 15 16 17 16 17 20 21 20 19 17 18 18 16 15 16 16 16 15 16 15 15 16 16 13 13 12 13 14 11 12 12 12 9 10 9 9 10
10 5 10 14 4 5 5 5 7 17 16 15 14 14 16 16 17 17 21 20 20 18 16 18 18 17 18 15 13 14 14 13 12 12 11 11 12 12 13 14 12 12 13 13 12 11 8 11 14
11 8 11 16 12 7 10 11 13 14 16 14 15 15 16 16 16 16 16 19 19 19 19 19 19 18 18 16 12 9 8 9 8 9 10 11 13 13 14 14 13 11 15 12 8 7 6 11 13
4 18 10 5 3 5 14 5 18 14 16 16 16 17 16 16 16 15 16 17 19 16 16 18 19 20 19 17 15 13 11 10 9 10 10 7 11 13 14 14 13 13 13 15 15 16 12 13 16
12 13 10 12 11 11 3 2 13 10 18 18 17 19 18 17 18 16 16 18 15 18 17 17 18 20 19 19 18 14 13 13 11 10 7 6 8 12 12 14 13 10 7 8 8 8 11 10 15
7 10 13 13 13 4 11 16 16 5 4 6 6 16 19 18 16 15 15 16 15 13 13 16 18 19 17 18 17 16 13 10 7 6 6 9 13 9 11 12 11 9 7 5 7 8 10 9 10
11 16 10 6 10 5 7 9 7 4 8 7 5 5 13 18 15 16 15 14 14 14 13 13 15 15 16 17 16 15 14 12 12 11 12 9 6 9 10 12 11 10 9 5 3 5 6 7 7
11 15 7 0 5 2 21 4 12 13 11 8 6 5 4 11 17 14 13 14 12 9 10 11 11 14 16 16 16 15 15 15 12 13 13 11 12 12 6 9 9 8 8 6 5 5 5 7 6
14 16 15 14 14 15 10 5 6 13 12 10 10 8 5 3 5 6 3 5 6 7 7 9 10 12 14 15 14 14 14 13 11 11 9 12 13 13 10 9 8 8 7 6 4 3 3 2 4
15 13 14 6 4 7 7 7 9 14 11 11 11 11 10 10 7 6 5 6 4 6 7 5 6 8 7 10 6 5 5 6 6 7 10 10 10 12 8 7 8 7 6 5 5 5 8 2 4
11 14 16 16 6 7 11 11 20 13 12 12 12 12 12 11 10 9 7 8 6 5 4 7 5 9 6 8 6 3 1 2 1 2 6 5 2 9 8 8 6 5 8 8 5 4 1 3 5
18 14 18 12 14 10 9 10 10 13 10 10 13 12 12 11 10 9 9 9 7 10 8 11 10 7 6 6 6 4 2 1 2 5 7 4 1 6 7 10 10 8 12 8 9 7 5 3 8
Wind_Direction
166 184 240 262 267 183 38 91 92 107 104 95 80 64 74 33 31 95 134 142 138 140 143 143 151 152 152 150 146 144 138 134 127 125 125 124 118 108 101 105 109 105 108 106 105 109 108 109 106
224 214 251 275 151 68 51 82 79 93 99 99 96 56 84 66 94 128 123 145 144 140 145 144 151 156 154 154 155 151 141 140 134 127 124 119 118 111 103 105 108 109 108 112 112 109 113 112 112
251 246 270 296 45 59 109 104 79 95 126 116 105 54 38 84 125 131 136 146 142 146 144 149 150 147 143 146 146 143 139 138 130 120 116 117 109 107 107 109 115 102 110 108 110 121 119 119 121
225 208 213 180 71 58 75 74 106 114 149 70 105 93 89 133 133 132 144 145 142 151 143 154 152 149 146 143 142 139 136 138 133 122 117 111 102 105 102 98 102 106 121 120 117 126 132 132 120
228 240 348 118 73 76 87 84 88 297 75 117 6 89 113 120 130 141 143 146 160 145 135 152 152 148 147 147 146 143 144 144 134 125 119 113 108 114 112 107 98 97 108 115 127 126 132 139 145
268 77 192 72 81 117 102 80 76 96 76 87 107 110 124 151 142 153 154 149 171 139 142 153 158 155 151 149 148 143 140 136 128 122 120 117 121 122 110 104 100 108 95 138 148 161 160 154 159
260 72 48 73 133 76 109 132 126 101 119 88 100 96 131 173 151 156 162 157 158 139 151 157 161 159 155 157 155 151 145 142 134 128 133 122 180 180 167 185 181 182 214 221 207 205 192 197 192
295 55 85 79 75 94 108 112 77 78 70 114 336 131 153 152 154 156 161 160 160 152 154 163 163 165 168 172 167 163 158 153 152 145 140 222 256 248 192 68 201 217 245 245 227 228 223 212 219
229 303 59 67 70 121 164 117 65 87 129 57 64 135 139 148 155 158 160 165 159 168 157 168 170 170 172 174 188 183 184 178 167 190 196 290 332 308 238 156 257 268 243 240 234 231 231 231 230
288 327 70 27 59 97 125 115 142 115 124 104 108 115 143 157 158 161 167 171 165 182 168 167 170 177 179 190 178 192 195 196 201 209 231 269 291 296 322 331 301 275 277 263 238 238 227 234 240
15 68 76 62 47 85 102 118 185 140 111 132 140 145 155 162 167 169 174 177 173 183 177 171 187 185 176 196 178 191 204 201 197 228 247 249 281 295 286 275 266 270 245 273 230 230 234 234 250
115 71 61 87 102 113 89 134 129 105 98 109 138 154 162 168 173 175 180 179 175 183 184 182 187 194 191 189 203 202 201 200 213 231 243 254 272 267 257 281 278 259 265 266 248 245 228 249 248
34 101 95 110 123 97 128 67 134 105 125 117 139 153 165 175 176 180 181 181 182 184 189 194 193 188 211 214 199 211 206 207 226 237 254 253 262 271 255 251 263 274 277 274 270 238 254 241 251
101 102 137 159 129 131 107 125 155 124 154 130 147 157 168 181 181 181 187 184 192 183 186 197 197 191 208 219 220 218 204 219 233 235 242 239 248 262 255 260 265 265 260 263 221 243 260 263 251
144 174 170 150 161 93 43 210 94 134 142 147 161 169 165 175 180 185 191 183 190 185 185 198 201 194 201 214 216 215 213 227 236 240 243 243 243 247 253 265 261 262 247 238 222 240 253 261 266
221 231 51 154 169 120 125 131 134 151 158 165 169 168 168 175 179 186 189 192 179 188 185 199 204 205 192 206 209 216 221 225 229 236 241 238 240 247 259 257 251 243 236 237 228 239 240 261 265
159 40 272 149 156 131 187 114 141 163 170 170 177 172 182 184 186 182 191 202 188 187 182 197 204 213 196 198 205 210 226 224 232 231 233 235 231 240 242 249 244 237 233 239 239 240 244 248 252
269 174 272 130 163 176 233 128 149 174 178 173 178 174 189 192 197 182 201 192 200 187 193 201 203 207 210 207 201 213 224 228 228 230 230 232 222 234 230 239 234 226 237 237 236 234 250 247 243
223 256 194 179 109 240 230 239 151 178 193 176 182 179 186 199 190 195 196 197 197 201 188 202 202 198 206 211 207 209 220 228 231 236 231 227 233 235 232 240 235 232 233 239 239 245 257 265 271
242 258 28 1 96 252 263 243 167 169 194 182 193 186 192 198 191 198 192 201 201 194 208 202 209 203 207 213 227 212 210 227 233 239 241 227 235 236 233 237 241 238 241 239 237 244 235 265 269
242 113 108 249 241 225 312 346 315 175 184 194 186 197 201 196 201 185 198 201 204 198 193 207 206 206 209 217 215 221 228 237 234 242 243 229 230 233 234 235 240 240 242 250 241 240 237 261 284
36 309 283 252 261 121 272 165 271 191 177 188 199 195 203 196 200 182 196 202 199 196 201 201 203 201 208 209 222 216 224 234 237 231 227 216 228 234 240 238 238 241 246 242 245 249 247 246 243
151 215 286 301 276 155 236 118 199 203 175 177 202 201 205 199 189 201 193 193 214 193 197 196 200 200 203 203 214 212 218 229 220 238 159 205 228 230 231 233 227 237 225 223 227 231 233 235 232
317 266 247 249 244 256 226 219 79 257 35 113 197 200 201 197 202 193 199 196 200 207 191 191 194 196 201 205 213 217 226 225 234 221 222 232 236 208 229 231 224 226 243 223 236 248 238 230 231
244 257 260 286 243 345 210 276 113 164 98 102 147 185 205 192 207 193 199 204 203 210 197 193 186 200 197 207 214 218 228 230 227 223 226 234 242 228 218 225 218 216 218 230 245 237 234 229 231
254 269 279 157 322 202 288 250 123 122 114 112 126 149 211 220 183 214 195 205 197 212 188 198 186 196 208 205 214 218 220 221 231 233 231 230 235 252 226 215 216 215 214 224 223 240 228 218 228
227 251 252 174 247 253 178 329 226 123 123 125 115 119 115 152 81 124 217 165 155 198 193 204 205 207 217 210 216 224 224 235 229 238 238 240 232 239 223 212 202 207 212 215 207 220 207 205 239
245 244 292 242 241 314 18 355 290 173 135 129 128 117 107 100 110 137 152 120 153 171 173 180 194 214 232 224 213 209 245 236 237 241 247 248 270 254 241 193 180 179 175 196 212 180 171 186 281
211 235 259 221 193 254 250 215 239 150 159 144 131 130 129 129 122 124 127 133 140 110 104 130 99 63 38 62 76 59 250 352 9 318 317 286 230 282 245 180 137 169 170 180 199 270 225 251 281
238 254 239 243 228 264 309 116 82 85 126 135 121 127 123 126 127 133 133 130 104 87 73 69 88 104 106 114 111 106 136 225 254 253 235 281 9 248 243 218 234 219 195 195 183 250 291 309 279